Regional Weather Roundup
Issued by NWS

Home | Current Version | Previous Version | Text Only | Print | Product List | Glossary Off
Versions: 1 2 3 4 5 6 7 8 9 10 11 12 13 14 15 16 17 18 19 20 21 22 23 24 25 26 27 28 29 30 31 32 33 34 35 36 37 38 39 40 41 42 43 44 45 46 47 48 49 50

326
ASUS43 KDMX 072003
RWRIA

WEATHER ROUNDUP FOR IOWA
NATIONAL WEATHER SERVICE DES MOINES IA
200 PM CST SUN FEB 07 2016

NOTE: "FAIR" INDICATES FEW OR NO CLOUDS BELOW 12,000 FEET WITH NO
SIGNIFICANT WEATHER AND/OR OBSTRUCTIONS TO VISIBILITY.

* - THESE STATIONS ARE NOT NWS STATIONS...THUS NOT UNDER NWS
QUALITY CONTROL.  THEY ALSO DO NOT REPORT WEATHER SUCH
AS PRECIPITATION OR FOG.

IAZ001>003-012>014-020>022-031>034-043>046-072100-
   NORTHWEST IOWA

CITY           SKY/WX    TMP DP  RH WIND       PRES   REMARKS
CARROLL *      PTSUNNY   39  27  60 NW28G36   29.85F WCI  28
CHEROKEE *     CLOUDY    36  30  80 NW20G31   29.84F HAZE    WCI  25
DENISON *      PTSUNNY   39  27  60 W22G30    29.86F WCI  29
LE MARS *      LGT RAIN  36  34  93 W25G33    29.88F WCI  23
ORANGE CITY *  CLOUDY    34  30  86 W29G35    29.82F WCI  20
SHELDON *      CLOUDY    34  30  86 W20G29    29.79F WCI  22
SIOUX CITY     LGT SNOW  37  29  72 NW26G40   29.88F WCI  25
SPENCER        PTSUNNY   35  28  75 W29G38    29.78F WCI  22
STORM LAKE *   MIX PCPN  36  32  87 W36G45    29.83S WCI  21
$$

IAZ055>058-069>071-079>083-090>094-072100-
   SOUTHWEST IOWA

CITY           SKY/WX    TMP DP  RH WIND       PRES   REMARKS
ATLANTIC *     MOSUNNY   41  28  60 W12       29.91F
AUDUBON *      MOSUNNY   43  28  56 W9G16     29.88F
CLARINDA *     MOSUNNY   46  28  49 W22G30    29.97F
COUNCIL BLFS * MOSUNNY   43  23  45 W18G39    29.93F
CRESTON *      PTSUNNY   43  28  56 NW22G29   29.91F
HARLAN  *      PTSUNNY   39  28  65 W23G31    29.93F WCI  29
LAMONI         CLOUDY    43  28  55 NW20G35   29.92F
RED OAK *      SUNNY     45  28  53 W17G26    29.94F
SHENANDOAH *   SUNNY     46  28  49 W16G26    29.97F
$$

IAZ047>049-059>061-072>074-084-072100-
   CENTRAL IOWA

CITY           SKY/WX    TMP DP  RH WIND       PRES   REMARKS
AMES           MOSUNNY   40  27  59 W22G31    29.83F WCI  30
ANKENY *       MOSUNNY   41  30  65 W21G31    29.85F
BOONE *        SUNNY     41  27  56 W25G35    29.82F
CHARITON *     MOSUNNY   45  27  49 W15G30    29.88F
DES MOINES     PTSUNNY   42  26  53 W22G33    29.86F
GRINNELL*      PTSUNNY   41  30  65 W18G26    29.84S
KNOXVILLE *    PTSUNNY   43  28  56 W21       29.85F
MARSHALLTOWN   MOSUNNY   39  28  64 W22G31    29.80F WCI  29
NEWTON *       MOSUNNY   39  30  70 W13G21    29.84F WCI  32
PELLA *        PTSUNNY   43  28  54 W18G28    29.87F
$$

IAZ004>006-015-016-023>025-035-036-072100-
   NORTH CENTRAL IOWA

CITY           SKY/WX    TMP DP  RH WIND       PRES   REMARKS
ALGONA *       SUNNY     37  30  75 W24G31    29.76F WCI  26
CLARION *      SUNNY     37  28  70 W22       29.78F WCI  27
ESTHERVILLE    SUNNY     35  28  75 W26       29.74F WCI  22
FORT DODGE *   SUNNY     39  27  60 W18G26    29.81F WCI  30
MASON CITY     MOSUNNY   38  29  70 W23       29.74F WCI  27
FOREST CITY *    N/A     36  28  75 W16G24    29.73F WCI  26
WEBSTER CITY * SUNNY     39  28  65 W26       29.79F WCI  28
IOWA FALLS *     N/A     39  30  70 W23       29.79F WCI  29
$$

IAZ007>011-017>019-026>030-037>042-050>054-066-072100-
   NORTHEAST IOWA

CITY           SKY/WX    TMP DP  RH WIND       PRES   REMARKS
CEDAR RAPIDS   SUNNY     42  32  67 W22       29.78F
CHARLES CITY * SUNNY     39  32  75 W21G28    29.73F WCI  29
CLINTON *      SUNNY     43  32  65 W21       29.76F
DECORAH *      CLOUDY    39  27  60 W14G24    29.68F WCI  31
DUBUQUE        MOSUNNY   38  27  64 W18       29.73F WCI  28
MONTICELLO *   SUNNY     39  30  70 W17       29.76S WCI  30
OELWEIN *      SUNNY     37  30  75 W20       29.74F WCI  27
WATERLOO       SUNNY     39  28  64 W15       29.76F WCI  31
$$

IAZ064-065-067-068-078-072100-
   EAST CENTRAL IOWA

CITY           SKY/WX    TMP DP  RH WIND       PRES   REMARKS
DAVENPORT      SUNNY     44  30  57 W22       29.78F
IOWA CITY      SUNNY     44  29  55 W23G33    29.83F
MT. PLEASANT * SUNNY     49  30  48 W16G23    29.84S
MUSCATINE *    SUNNY     46  28  49 W22       29.82S
QUAD CITIES    SUNNY     47  27  45 NW23G30   29.77F
$$

IAZ062-063-075>077-085>089-095>099-072100-
   SOUTHEAST IOWA

CITY           SKY/WX    TMP DP  RH WIND       PRES   REMARKS
BURLINGTON     SUNNY     48  29  47 NW13G22   29.82F
FAIRFIELD *    SUNNY     46  27  46 W20G26    29.83F
FORT MADISON * SUNNY     46  30  53 NW21      29.84F
KEOKUK *       SUNNY     50  28  43 NW12G18   29.84S
OSKALOOSA *      N/A     43  30  61 W21G30    29.86S
OTTUMWA        MOSUNNY   46  28  49 NW15G25   29.85F
WASHINGTON *   SUNNY     45  30  57 W17G30    29.84F
$$

ABBREVIATIONS USED IN REMARKS
   TC - TEMPERATURES IN CELSIUS
  WCI - WIND CHILL INDEX
   HX - HEAT INDEX
  VSB - VISIBILITY
$$





USA.gov is the U.S. government's official web portal to all federal, state and local government web resources and services.